Regional Weather Roundup
Issued by NWS

Home | Current Version | Previous Version | Text Only | Print | Product List | Glossary Off
Versions: 1 2 3 4 5 6 7 8 9 10 11 12 13 14 15 16 17 18 19 20 21 22 23 24 25 26 27 28 29 30 31 32 33 34 35 36 37 38 39 40 41 42 43 44 45 46 47 48 49 50

000
ASUS43 KIND 250559
RWRIN

WEATHER ROUNDUP FOR INDIANA
NATIONAL WEATHER SERVICE INDIANAPOLIS IN
200 AM EDT THU MAY 25 2017

NOTE: "FAIR" INDICATES FEW OR NO CLOUDS BELOW 12,000 FEET WITH NO
SIGNIFICANT WEATHER AND/OR OBSTRUCTIONS TO VISIBILITY.

* - STATION DOES NOT REPORT WEATHER SUCH AS PRECIPITATION OR FOG.

+ - STATION NOT QUALITY CONTROLLED BY THE NATIONAL WEATHER SERVICE.
    USE DATA WITH CAUTION...ESPECIALLY DEWPOINT AND RELATIVE
    HUMIDITY OBSERVATIONS.

INZ001>003-010>013-019-020-250700-
NORTHWEST INDIANA

CITY           SKY/WX    TMP DP  RH WIND       PRES   REMARKS
MICHIGAN CITY+ CLOUDY    50  50 100 N6        29.51F
MONTICELLO +   DRIZZLE   53  52  95 NW15      29.46F
6HR MIN TEMP:  53; 6HR MAX TEMP:  58; 6HR PCP:  0.02;

RENSSELAER +   CLOUDY    52  50  93 NW10G16   29.50F FOG

$$

LMZ046-743>745-250700-
SOUTHERN LAKE MICHIGAN

STATION/POSITION TIME  TEMP    WIND        PRES    WAVE
                       AIR SEA DIR/SP/G            HT
                 (UTC) (F)     (DEG/KT/KT) (MB)    (FT)
BURNS HARBOR     0540   49     340/ 17/ 21 1000.3S
MICHIGAN CITY    0530   50     340/ 22/ 25   N/A
5NW MICH CITY    0550   50 53  350/ 16/ 21   N/A     5

$$

INZ004-005-014>016-021>024-250700-
NORTH CENTRAL INDIANA

CITY           SKY/WX    TMP DP  RH WIND       PRES   REMARKS
GOSHEN         CLOUDY    59  56  89 N14       29.44S
6HR MIN TEMP:  59; 6HR MAX TEMP:  60; 6HR PCP:  0.24;

PERU/GRISSOM   LGT RAIN  59  59 100 NW13      29.39F FOG
SOUTH BEND     CLOUDY    57  57 100 N10       29.47F FOG
6HR MIN TEMP:  57; 6HR MAX TEMP:  58; 6HR PCP: TRACE;


$$

INZ006>009-017-018-025>027-250700-
NORTHEAST INDIANA

CITY           SKY/WX    TMP DP  RH WIND       PRES   REMARKS
ANGOLA *+      CLOUDY    57  46  67 NE9       29.43F
FORT WAYNE     RAIN      59  57  93 NE15      29.37F
6HR MIN TEMP:  59; 6HR MAX TEMP:  59; 6HR PCP:  0.51;


$$

INZ028-029-035-036-043>045-051>053-250700-
WEST CENTRAL INDIANA

CITY           SKY/WX    TMP DP  RH WIND       PRES   REMARKS
CRAWFORDSVL +  CLOUDY    53  53 100 NW10      29.47S
6HR MIN TEMP:  53; 6HR MAX TEMP:  58; 6HR PCP:  0.01;

GREENCASTLE +  CLOUDY    55  54  94 NW8       29.47S
LAFAYETTE      LGT RAIN  53  53 100 NW15      29.47F FOG
6HR MIN TEMP:  53; 6HR MAX TEMP:  59; 6HR PCP:  0.01;

TERRE HAUTE    CLOUDY    57  54  89 NW8       29.49S
6HR MIN TEMP:  57; 6HR MAX TEMP:  60; 6HR PCP:  0.05;


$$

INZ030>032-037>040-046>048-054>057-064-065-250700-
CENTRAL INDIANA

CITY           SKY/WX    TMP DP  RH WIND       PRES   REMARKS
INDIANAPOLIS   RAIN      57  56  96 W15       29.42F FOG
6HR MIN TEMP:  57; 6HR MAX TEMP:  60; 6HR PCP:  0.07;

-EAGLE CREEK   RAIN      58  55  90 NW17      29.41F FOG
6HR MIN TEMP:  58; 6HR MAX TEMP:  60; 6HR PCP:  0.16;

KOKOMO +       LGT RAIN  58  57  97 NW13G21   29.40F
6HR MIN TEMP:  58; 6HR MAX TEMP:  59; 6HR PCP:  0.27;

SHELBYVILLE    LGT RAIN  60  56  86 W9        29.39F
6HR MIN TEMP:  60; 6HR MAX TEMP:  61; 6HR PCP:  0.05;


$$

INZ033-034-041-042-049-050-058-059-250700-
EAST CENTRAL INDIANA

CITY           SKY/WX    TMP DP  RH WIND       PRES   REMARKS
MUNCIE         RAIN      60  57  89 NW6       29.36F FOG
6HR MIN TEMP:  59; 6HR MAX TEMP:  61;

RICHMOND +     CLOUDY    55  55 100 W13       29.38F FOG

$$

INZ060-061-067>069-081>083-085>088-250700-
SOUTHWEST INDIANA

CITY           SKY/WX    TMP DP  RH WIND       PRES   REMARKS
EVANSVILLE     CLOUDY    59  55  87 MISG      29.53S
6HR MIN TEMP:  58; 6HR MAX TEMP:  59; 6HR PCP:  0.02;

HUNTINGBURG *+ CLOUDY    58  56  93 W8        29.51R
                                      6HR PCP:  0.11;


$$

INZ062-063-066-070>080-084-089>092-250700-
SOUTH CENTRAL AND SOUTHEAST INDIANA

CITY           SKY/WX    TMP DP  RH WIND       PRES   REMARKS
BLOOMINGTON    CLOUDY    57  53  86 W10       29.46S
6HR MIN TEMP:  57; 6HR MAX TEMP:  59; 6HR PCP:  0.09;

SEYMOUR +      CLOUDY    59  59 100 W13       29.43S

$$





USA.gov is the U.S. government's official web portal to all federal, state and local government web resources and services.